Hauptseite
METAR-TAF:

METAR-TAF

Flughäfen :

Bohrplattform

Troll A, Norwegen

Breite: 60-38-42N, Länge: 3-43-29E, Höhe: 20 m

Beobachtung

Neuester Wetterbericht von vor 39 Minuten, um 01:20 UTC
Wind 10 kt aus Süd/Südost
Temperatur 15°C
Luftfeuchtigkeit 67%
Luftdruck 1014 hPa
Sichtweite 10 km oder mehr

METAR: ENQA 230120Z AUTO 16010KT 9999NDV NCD 15/09 Q1014 W10/S3

Zeit: 03:59 (01:59 UTC)


TAF: fehlend

Wetterbeobachtungen und Prognosen von mehr als 4000 Flughäfen (METAR und TAF Bericht).

Die verfügbaren Stationen werden durch gelbe und rote Markierungen auf der Karte dargestellt.

Führen Sie die Maus auf sie, um den Namen der Station zu sehen.

Darauf klicken, um die Beobachtung von Wetterbeobachtungen und Prognosen zu sehen.

Um die Karte zu ändern : klicken Sie auf den grünen Tasten mit einem schwarzen Kreuz Zum Vergrößern, auf den grünen Button mit einem Gedankenstrich zu verkleinern, oder auf die grünen Pfeile für benachbarte Karten.


METAR-TAF: